Time,TemperatureF,DewpointF,PressureIn,WindDirection,WindDirectionDegrees,WindSpeedMPH,WindSpeedGustMPH,Humidity,HourlyPrecipIn,Conditions,Clouds,dailyrainin,SoftwareType,DateUTC
2013-04-09 00:02:00,48.0,42.0,29.49,WNW,284,11.0,20.0,80,0.09,,,0.03,,2013-04-09 07:02:00,
2013-04-09 00:12:00,48.0,42.0,29.49,WNW,284,11.0,20.0,80,0.09,,,0.03,,2013-04-09 07:12:00,
2013-04-09 00:22:00,47.0,42.0,29.49,WSW,241,6.0,18.0,84,0.13,,,0.05,,2013-04-09 07:22:00,
2013-04-09 00:32:00,46.0,42.0,29.51,SSW,207,5.0,10.0,87,0.10,,,0.06,,2013-04-09 07:32:00,
2013-04-09 00:41:00,46.0,42.0,29.51,SSW,207,5.0,10.0,87,0.10,,,0.06,,2013-04-09 07:41:00,
2013-04-09 00:52:00,46.0,43.0,29.53,NW,323,1.0,5.0,89,0.05,,,0.07,,2013-04-09 07:52:00,
2013-04-09 01:02:00,47.0,44.0,29.53,NNE,22,0.0,1.0,89,0.00,,,0.07,,2013-04-09 08:02:00,
2013-04-09 01:11:00,47.0,44.0,29.53,NNE,22,0.0,1.0,89,0.00,,,0.07,,2013-04-09 08:11:00,
2013-04-09 01:21:00,47.0,44.0,29.54,East,101,1.0,4.0,90,0.28,,,0.09,,2013-04-09 08:21:00,
2013-04-09 01:32:00,46.0,43.0,29.54,East,101,0.0,0.0,90,0.04,,,0.13,,2013-04-09 08:32:00,
2013-04-09 01:42:00,46.0,43.0,29.54,East,101,0.0,0.0,90,0.04,,,0.13,,2013-04-09 08:42:00,
2013-04-09 01:52:00,46.0,43.0,29.53,East,101,0.0,0.0,90,0.00,,,0.13,,2013-04-09 08:52:00,
2013-04-09 02:01:00,46.0,44.0,29.54,East,101,0.0,0.0,91,0.00,,,0.13,,2013-04-09 09:01:00,
2013-04-09 02:12:00,46.0,44.0,29.54,East,101,0.0,0.0,91,0.00,,,0.13,,2013-04-09 09:12:00,
2013-04-09 02:22:00,46.0,44.0,29.54,East,101,0.0,0.0,91,0.00,,,0.13,,2013-04-09 09:22:00,
2013-04-09 02:32:00,46.0,44.0,29.54,East,101,0.0,1.0,92,0.00,,,0.13,,2013-04-09 09:32:00,
2013-04-09 02:43:00,46.0,44.0,29.54,East,101,0.0,1.0,92,0.00,,,0.13,,2013-04-09 09:43:00,
2013-04-09 02:52:00,46.0,44.0,29.55,East,101,0.0,0.0,92,0.00,,,0.13,,2013-04-09 09:52:00,
2013-04-09 03:02:00,46.0,44.0,29.55,East,101,0.0,0.0,93,0.00,,,0.13,,2013-04-09 10:02:00,
2013-04-09 03:12:00,46.0,44.0,29.55,East,101,0.0,0.0,93,0.00,,,0.13,,2013-04-09 10:12:00,
2013-04-09 03:23:00,46.0,44.0,29.55,East,101,0.0,1.0,93,0.00,,,0.13,,2013-04-09 10:23:00,
2013-04-09 03:32:00,46.0,44.0,29.56,East,90,0.0,3.0,93,0.00,,,0.13,,2013-04-09 10:32:00,
2013-04-09 03:42:00,46.0,44.0,29.56,East,90,0.0,3.0,93,0.00,,,0.13,,2013-04-09 10:42:00,
2013-04-09 03:52:00,46.0,44.0,29.56,East,90,0.0,1.0,93,0.00,,,0.13,,2013-04-09 10:52:00,
2013-04-09 04:02:00,47.0,45.0,29.57,North,357,1.0,4.0,93,0.00,,,0.13,,2013-04-09 11:02:00,
2013-04-09 04:11:00,47.0,45.0,29.57,North,357,1.0,4.0,93,0.00,,,0.13,,2013-04-09 11:11:00,
2013-04-09 04:22:00,47.0,45.0,29.57,NNW,339,0.0,2.0,92,0.00,,,0.13,,2013-04-09 11:22:00,
2013-04-09 04:32:00,47.0,45.0,29.58,NNW,328,1.0,4.0,92,0.00,,,0.13,,2013-04-09 11:32:00,
2013-04-09 04:42:00,47.0,45.0,29.58,NNW,328,1.0,4.0,92,0.00,,,0.13,,2013-04-09 11:42:00,
2013-04-09 04:52:00,47.0,45.0,29.58,WNW,287,0.0,3.0,92,0.00,,,0.13,,2013-04-09 11:52:00,
2013-04-09 05:01:00,47.0,45.0,29.58,WNW,287,0.0,0.0,93,0.00,,,0.13,,2013-04-09 12:01:00,
2013-04-09 05:12:00,47.0,45.0,29.58,WNW,287,0.0,0.0,93,0.00,,,0.13,,2013-04-09 12:12:00,
2013-04-09 05:21:00,47.0,45.0,29.59,WNW,287,0.0,0.0,92,0.00,,,0.13,,2013-04-09 12:21:00,
2013-04-09 05:32:00,48.0,46.0,29.60,WNW,285,0.0,2.0,92,0.00,,,0.13,,2013-04-09 12:32:00,
2013-04-09 05:42:00,48.0,46.0,29.60,WNW,285,0.0,2.0,92,0.00,,,0.13,,2013-04-09 12:42:00,
2013-04-09 05:53:00,48.0,46.0,29.61,WNW,285,0.0,0.0,92,0.00,,,0.13,,2013-04-09 12:53:00,
2013-04-09 06:02:00,48.0,45.0,29.61,WNW,285,0.0,0.0,91,0.00,,,0.13,,2013-04-09 13:02:00,
2013-04-09 06:12:00,48.0,45.0,29.61,WNW,285,0.0,0.0,91,0.00,,,0.13,,2013-04-09 13:12:00,
2013-04-09 06:22:00,48.0,46.0,29.61,WNW,285,0.0,2.0,92,0.00,,,0.13,,2013-04-09 13:22:00,
2013-04-09 06:32:00,48.0,46.0,29.61,WNW,285,1.0,3.0,92,0.00,,,0.13,,2013-04-09 13:32:00,
2013-04-09 06:41:00,48.0,46.0,29.61,WNW,285,1.0,3.0,92,0.00,,,0.13,,2013-04-09 13:41:00,
2013-04-09 06:52:00,48.0,46.0,29.62,WNW,285,1.0,3.0,92,0.00,,,0.14,,2013-04-09 13:52:00,
2013-04-09 07:02:00,49.0,46.0,29.63,WNW,291,2.0,4.0,91,0.00,,,0.14,,2013-04-09 14:02:00,
2013-04-09 07:11:00,49.0,46.0,29.63,WNW,291,2.0,4.0,91,0.00,,,0.14,,2013-04-09 14:11:00,
2013-04-09 07:21:00,49.0,46.0,29.64,WNW,294,0.0,4.0,89,0.00,,,0.14,,2013-04-09 14:21:00,
2013-04-09 07:31:00,49.0,45.0,29.65,WNW,286,2.0,4.0,86,0.00,,,0.14,,2013-04-09 14:31:00,
2013-04-09 07:41:00,49.0,45.0,29.65,WNW,286,2.0,4.0,86,0.00,,,0.14,,2013-04-09 14:41:00,
2013-04-09 07:52:00,50.0,46.0,29.65,WSW,256,1.0,3.0,85,0.00,,,0.14,,2013-04-09 14:52:00,
2013-04-09 08:01:00,50.0,45.0,29.66,WSW,256,0.0,3.0,82,0.00,,,0.14,,2013-04-09 15:01:00,
2013-04-09 08:12:00,50.0,45.0,29.66,WSW,256,0.0,3.0,82,0.00,,,0.14,,2013-04-09 15:12:00,
2013-04-09 08:21:00,50.0,43.0,29.66,West,269,2.0,5.0,77,0.00,,,0.14,,2013-04-09 15:21:00,
2013-04-09 08:32:00,51.0,42.0,29.67,WNW,298,2.0,7.0,71,0.00,,,0.14,,2013-04-09 15:32:00,
2013-04-09 08:42:00,51.0,42.0,29.67,WNW,298,2.0,7.0,71,0.00,,,0.14,,2013-04-09 15:42:00,
2013-04-09 08:53:00,52.0,42.0,29.68,West,265,2.0,6.0,68,0.00,,,0.14,,2013-04-09 15:53:00,
2013-04-09 09:02:00,52.0,41.0,29.69,WNW,299,1.0,5.0,67,0.00,,,0.14,,2013-04-09 16:02:00,
2013-04-09 09:12:00,52.0,41.0,29.69,WNW,299,1.0,5.0,67,0.00,,,0.14,,2013-04-09 16:12:00,
2013-04-09 09:22:00,53.0,41.0,29.69,West,272,2.0,7.0,63,0.00,,,0.14,,2013-04-09 16:22:00,
2013-04-09 09:32:00,54.0,40.0,29.69,NW,312,3.0,6.0,58,0.00,,,0.14,,2013-04-09 16:32:00,
2013-04-09 09:41:00,54.0,40.0,29.69,NW,312,3.0,6.0,58,0.00,,,0.14,,2013-04-09 16:41:00,
2013-04-09 09:52:00,55.0,39.0,29.69,West,273,4.0,9.0,55,0.00,,,0.14,,2013-04-09 16:52:00,
2013-04-09 10:02:00,57.0,38.0,29.69,WNW,286,4.0,11.0,49,0.00,,,0.14,,2013-04-09 17:02:00,
2013-04-09 10:12:00,57.0,38.0,29.69,WNW,286,4.0,11.0,49,0.00,,,0.14,,2013-04-09 17:12:00,
2013-04-09 10:22:00,58.0,37.0,29.70,WNW,303,7.0,12.0,46,0.00,,,0.14,,2013-04-09 17:22:00,
2013-04-09 10:32:00,59.0,38.0,29.70,WSW,257,8.0,15.0,45,0.00,,,0.14,,2013-04-09 17:32:00,
2013-04-09 10:42:00,59.0,38.0,29.70,WSW,257,8.0,15.0,45,0.00,,,0.14,,2013-04-09 17:42:00,
2013-04-09 10:53:00,59.0,37.0,29.71,SW,217,8.0,14.0,43,0.00,,,0.14,,2013-04-09 17:53:00,
2013-04-09 11:01:00,59.0,36.0,29.70,WSW,249,6.0,13.0,42,0.00,,,0.14,,2013-04-09 18:01:00,
2013-04-09 11:12:00,59.0,36.0,29.70,WSW,249,6.0,13.0,42,0.00,,,0.14,,2013-04-09 18:12:00,
2013-04-09 11:22:00,60.0,36.0,29.70,SW,233,7.0,14.0,41,0.00,,,0.14,,2013-04-09 18:22:00,
2013-04-09 11:32:00,59.0,35.0,29.71,West,260,8.0,16.0,40,0.00,,,0.14,,2013-04-09 18:32:00,
2013-04-09 11:42:00,59.0,35.0,29.71,West,260,8.0,16.0,40,0.00,,,0.14,,2013-04-09 18:42:00,
2013-04-09 11:52:00,61.0,35.0,29.71,WSW,255,10.0,16.0,37,0.00,,,0.14,,2013-04-09 18:52:00,
2013-04-09 12:02:00,61.0,35.0,29.71,WSW,255,10.0,16.0,37,0.00,,,0.14,,2013-04-09 19:02:00,
2013-04-09 12:11:00,61.0,35.0,29.71,WSW,255,10.0,16.0,37,0.00,,,0.14,,2013-04-09 19:11:00,
2013-04-09 12:22:00,61.0,35.0,29.71,WSW,255,10.0,16.0,37,0.00,,,0.14,,2013-04-09 19:22:00,
2013-04-09 12:31:00,63.0,32.0,29.70,West,273,9.0,16.0,31,0.00,,,0.14,,2013-04-09 19:31:00,
2013-04-09 12:42:00,63.0,32.0,29.70,West,273,9.0,16.0,31,0.00,,,0.14,,2013-04-09 19:42:00,
2013-04-09 12:52:00,62.0,32.0,29.70,WSW,238,8.0,21.0,32,0.00,,,0.14,,2013-04-09 19:52:00,
2013-04-09 13:02:00,61.0,30.0,29.71,West,279,8.0,21.0,31,0.00,,,0.14,,2013-04-09 20:02:00,
2013-04-09 13:11:00,62.0,31.0,29.70,West,270,8.0,16.0,31,0.00,,,0.14,,2013-04-09 20:11:00,
2013-04-09 13:21:00,62.0,31.0,29.70,West,270,8.0,16.0,31,0.00,,,0.14,,2013-04-09 20:21:00,
2013-04-09 13:32:00,61.0,29.0,29.71,WSW,244,10.0,21.0,30,0.00,,,0.14,,2013-04-09 20:32:00,
2013-04-09 13:42:00,61.0,29.0,29.71,WSW,244,10.0,21.0,30,0.00,,,0.14,,2013-04-09 20:42:00,
2013-04-09 13:52:00,62.0,30.0,29.71,WSW,242,12.0,22.0,30,0.00,,,0.14,,2013-04-09 20:52:00,
2013-04-09 14:01:00,63.0,30.0,29.71,WNW,293,10.0,19.0,29,0.00,,,0.14,,2013-04-09 21:01:00,
2013-04-09 14:12:00,63.0,30.0,29.71,WNW,293,10.0,19.0,29,0.00,,,0.14,,2013-04-09 21:12:00,
2013-04-09 14:22:00,63.0,30.0,29.71,WNW,293,10.0,19.0,29,0.00,,,0.14,,2013-04-09 21:22:00,
2013-04-09 14:32:00,62.0,30.0,29.71,NW,324,7.0,19.0,30,0.00,,,0.14,,2013-04-09 21:32:00,
2013-04-09 14:42:00,62.0,30.0,29.71,NW,324,7.0,19.0,30,0.00,,,0.14,,2013-04-09 21:42:00,
2013-04-09 14:52:00,62.0,30.0,29.71,WNW,299,10.0,20.0,30,0.00,,,0.14,,2013-04-09 21:52:00,
2013-04-09 15:02:00,62.0,29.0,29.71,WNW,294,9.0,20.0,28,0.00,,,0.14,,2013-04-09 22:02:00,
2013-04-09 15:12:00,63.0,29.0,29.71,WNW,290,9.0,20.0,27,0.00,,,0.14,,2013-04-09 22:12:00,
2013-04-09 15:22:00,63.0,29.0,29.71,WNW,290,9.0,20.0,27,0.00,,,0.14,,2013-04-09 22:22:00,
2013-04-09 15:32:00,63.0,29.0,29.72,WNW,286,9.0,20.0,27,0.00,,,0.14,,2013-04-09 22:32:00,
2013-04-09 15:42:00,63.0,29.0,29.72,WNW,286,9.0,20.0,27,0.00,,,0.14,,2013-04-09 22:42:00,
2013-04-09 15:53:00,64.0,27.0,29.72,West,277,10.0,20.0,25,0.00,,,0.14,,2013-04-09 22:53:00,
2013-04-09 16:02:00,65.0,28.0,29.72,WSW,237,8.0,18.0,25,0.00,,,0.14,,2013-04-09 23:02:00,
2013-04-09 16:12:00,64.0,27.0,29.72,WNW,282,9.0,23.0,25,0.00,,,0.14,,2013-04-09 23:12:00,
2013-04-09 16:22:00,64.0,27.0,29.72,WNW,282,9.0,23.0,25,0.00,,,0.14,,2013-04-09 23:22:00,
2013-04-09 16:31:00,64.0,27.0,29.72,West,271,8.0,23.0,25,0.00,,,0.14,,2013-04-09 23:31:00,
2013-04-09 16:42:00,64.0,27.0,29.72,West,271,8.0,23.0,25,0.00,,,0.14,,2013-04-09 23:42:00,
2013-04-09 16:52:00,63.0,27.0,29.73,WNW,285,11.0,21.0,25,0.00,,,0.14,,2013-04-09 23:52:00,
2013-04-09 17:02:00,63.0,27.0,29.73,WNW,285,11.0,21.0,25,0.00,,,0.14,,2013-04-10 00:02:00,
2013-04-09 17:11:00,63.0,27.0,29.73,WNW,285,11.0,21.0,25,0.00,,,0.14,,2013-04-10 00:11:00,
2013-04-09 17:22:00,63.0,26.0,29.74,West,279,7.0,23.0,24,0.00,,,0.14,,2013-04-10 00:22:00,
2013-04-09 17:32:00,63.0,26.0,29.74,West,276,8.0,14.0,24,0.00,,,0.14,,2013-04-10 00:32:00,
2013-04-09 17:41:00,63.0,26.0,29.74,West,276,8.0,14.0,24,0.00,,,0.14,,2013-04-10 00:41:00,
2013-04-09 17:52:00,63.0,26.0,29.74,WSW,258,6.0,17.0,24,0.00,,,0.14,,2013-04-10 00:52:00,
2013-04-09 18:01:00,63.0,26.0,29.75,WNW,296,6.0,13.0,24,0.00,,,0.14,,2013-04-10 01:01:00,
2013-04-09 18:11:00,62.0,25.0,29.75,WNW,298,8.0,15.0,24,0.00,,,0.14,,2013-04-10 01:11:00,
2013-04-09 18:22:00,62.0,25.0,29.75,WNW,298,8.0,15.0,24,0.00,,,0.14,,2013-04-10 01:22:00,
2013-04-09 18:31:00,62.0,25.0,29.75,West,278,7.0,14.0,24,0.00,,,0.14,,2013-04-10 01:31:00,
2013-04-09 18:41:00,62.0,25.0,29.75,West,278,7.0,14.0,24,0.00,,,0.14,,2013-04-10 01:41:00,
2013-04-09 18:52:00,62.0,25.0,29.75,West,271,6.0,14.0,24,0.00,,,0.14,,2013-04-10 01:52:00,
2013-04-09 19:01:00,61.0,25.0,29.76,West,263,4.0,10.0,25,0.00,,,0.14,,2013-04-10 02:01:00,
2013-04-09 19:11:00,61.0,25.0,29.76,West,263,4.0,10.0,25,0.00,,,0.14,,2013-04-10 02:11:00,
2013-04-09 19:21:00,61.0,25.0,29.76,WSW,255,6.0,12.0,25,0.00,,,0.14,,2013-04-10 02:21:00,
2013-04-09 19:32:00,61.0,25.0,29.77,West,274,5.0,11.0,25,0.00,,,0.14,,2013-04-10 02:32:00,
2013-04-09 19:42:00,61.0,25.0,29.77,West,274,5.0,11.0,25,0.00,,,0.14,,2013-04-10 02:42:00,
2013-04-09 19:52:00,60.0,24.0,29.77,West,274,5.0,11.0,25,0.00,,,0.14,,2013-04-10 02:52:00,
2013-04-09 20:01:00,60.0,24.0,29.77,West,260,5.0,9.0,25,0.00,,,0.14,,2013-04-10 03:01:00,
2013-04-09 20:11:00,60.0,24.0,29.77,West,260,5.0,9.0,25,0.00,,,0.14,,2013-04-10 03:11:00,
2013-04-09 20:21:00,59.0,24.0,29.78,WNW,286,3.0,10.0,26,0.00,,,0.14,,2013-04-10 03:21:00,
2013-04-09 20:32:00,57.0,25.0,29.80,West,278,1.0,3.0,29,0.00,,,0.14,,2013-04-10 03:32:00,
2013-04-09 20:43:00,57.0,25.0,29.80,West,278,1.0,3.0,29,0.00,,,0.14,,2013-04-10 03:43:00,
2013-04-09 20:52:00,56.0,26.0,29.80,West,278,0.0,2.0,31,0.00,,,0.14,,2013-04-10 03:52:00,
2013-04-09 21:02:00,55.0,29.0,29.81,West,278,0.0,0.0,36,0.00,,,0.14,,2013-04-10 04:02:00,
2013-04-09 21:12:00,55.0,29.0,29.81,West,278,0.0,0.0,36,0.00,,,0.14,,2013-04-10 04:12:00,
2013-04-09 21:22:00,52.0,30.0,29.82,West,278,0.0,0.0,43,0.00,,,0.14,,2013-04-10 04:22:00,
2013-04-09 21:32:00,51.0,32.0,29.83,West,278,0.0,0.0,48,0.00,,,0.14,,2013-04-10 04:32:00,
2013-04-09 21:42:00,51.0,32.0,29.83,West,278,0.0,0.0,48,0.00,,,0.14,,2013-04-10 04:42:00,
2013-04-09 21:53:00,50.0,33.0,29.83,West,278,0.0,1.0,52,0.00,,,0.14,,2013-04-10 04:53:00,
2013-04-09 22:02:00,50.0,33.0,29.83,West,278,0.0,2.0,52,0.00,,,0.14,,2013-04-10 05:02:00,
2013-04-09 22:12:00,49.0,33.0,29.84,West,278,0.0,0.0,53,0.00,,,0.14,,2013-04-10 05:12:00,
2013-04-09 22:22:00,49.0,33.0,29.84,West,278,0.0,0.0,53,0.00,,,0.14,,2013-04-10 05:22:00,
2013-04-09 22:32:00,50.0,34.0,29.84,West,278,0.0,1.0,53,0.00,,,0.14,,2013-04-10 05:32:00,
2013-04-09 22:42:00,50.0,34.0,29.84,West,278,0.0,1.0,53,0.00,,,0.14,,2013-04-10 05:42:00,
2013-04-09 22:53:00,50.0,34.0,29.85,West,278,0.0,0.0,55,0.00,,,0.14,,2013-04-10 05:53:00,
2013-04-09 23:02:00,50.0,34.0,29.85,West,278,0.0,1.0,54,0.00,,,0.14,,2013-04-10 06:02:00,
2013-04-09 23:12:00,50.0,31.0,29.85,West,278,0.0,0.0,48,0.00,,,0.14,,2013-04-10 06:12:00,
2013-04-09 23:21:00,50.0,31.0,29.85,West,278,0.0,0.0,48,0.00,,,0.14,,2013-04-10 06:21:00,
2013-04-09 23:31:00,49.0,34.0,29.86,West,279,0.0,1.0,55,0.00,,,0.14,,2013-04-10 06:31:00,
2013-04-09 23:41:00,49.0,34.0,29.86,West,279,0.0,1.0,55,0.00,,,0.14,,2013-04-10 06:41:00,
2013-04-09 23:52:00,49.0,34.0,29.87,West,279,0.0,0.0,55,0.00,,,0.13,,2013-04-10 06:52:00,